| time (UTC) | temp C | wind direction | speed KPH | gust KPH | rain 1hr cm | rain 24hr cm | rain mn cm | humidity % | barometer mb |
| 20260508161506 | 16 | 124 | 22.5 | 41.8 | 0.00 | 0.00 | 0.00 | 73 | 1007.0 |
| 20260508160010 | 16 | 106 | 24.1 | 46.7 | 0.00 | 0.00 | 0.00 | 77 | 1007.0 |
| 20260508154517 | 17 | 117 | 25.7 | 43.5 | 0.00 | 0.00 | 0.00 | 74 | 1007.2 |
| 20260508153032 | 18 | 99 | 19.3 | 29.0 | 0.00 | 0.00 | 0.00 | 70 | 1007.0 |
| 20260508151536 | 19 | 98 | 19.3 | 29.0 | 0.00 | 0.00 | 0.00 | 65 | 1007.2 |
| 20260508150012 | 19 | 98 | 14.5 | 25.7 | 0.00 | 0.00 | 0.00 | 65 | 1007.4 |
| 20260508144514 | 19 | 103 | 20.9 | 33.8 | 0.00 | 0.00 | 0.00 | 67 | 1007.5 |
| 20260508143018 | 19 | 95 | 17.7 | 33.8 | 0.00 | 0.00 | 0.00 | 67 | 1007.8 |
| 20260508141526 | 18 | 132 | 17.7 | 30.6 | 0.00 | 0.00 | 0.00 | 67 | 1008.1 |
| 20260508140007 | 19 | 121 | 22.5 | 29.0 | 0.00 | 0.00 | 0.00 | 66 | 1008.4 |
| 20260508134517 | 19 | 122 | 19.3 | 30.6 | 0.00 | 0.00 | 0.00 | 67 | 1008.6 |
| 20260508133018 | 18 | 125 | 17.7 | 30.6 | 0.00 | 0.00 | 0.00 | 67 | 1008.8 |
| 20260508131525 | 19 | 115 | 16.1 | 29.0 | 0.00 | 0.00 | 0.00 | 65 | 1008.7 |
| 20260508130023 | 19 | 102 | 17.7 | 33.8 | 0.00 | 0.00 | 0.00 | 65 | 1008.7 |
| 20260508124521 | 18 | 102 | 19.3 | 32.2 | 0.00 | 0.00 | 0.00 | 65 | 1008.9 |
| 20260508123016 | 18 | 107 | 14.5 | 27.4 | 0.00 | 0.00 | 0.00 | 66 | 1009.0 |
| 20260508121525 | 18 | 117 | 16.1 | 29.0 | 0.00 | 0.00 | 0.00 | 66 | 1009.2 |
| 20260508120027 | 18 | 98 | 22.5 | 32.2 | 0.00 | 0.00 | 0.00 | 65 | 1009.6 |
| 20260508114527 | 18 | 125 | 17.7 | 24.1 | 0.00 | 0.00 | 0.00 | 65 | 1009.7 |
| 20260508113016 | 18 | 113 | 12.9 | 24.1 | 0.00 | 0.00 | 0.00 | 66 | 1009.9 |
| 20260508111521 | 17 | 121 | 9.7 | 20.9 | 0.00 | 0.00 | 0.00 | 67 | 1010.0 |
| 20260508110025 | 17 | 122 | 12.9 | 22.5 | 0.00 | 0.00 | 0.00 | 65 | 1010.1 |
| 20260508104523 | 17 | 117 | 16.1 | 27.4 | 0.00 | 0.00 | 0.00 | 63 | 1010.3 |
| 20260508103014 | 17 | 181 | 11.3 | 25.7 | 0.00 | 0.00 | 0.00 | 66 | 1010.3 |
| 20260508101522 | 17 | 101 | 16.1 | 29.0 | 0.00 | 0.00 | 0.00 | 65 | 1010.3 |
| 20260508100023 | 17 | 73 | 14.5 | 27.4 | 0.00 | 0.00 | 0.00 | 65 | 1010.3 |
| 20260508094526 | 17 | 96 | 17.7 | 27.4 | 0.00 | 0.00 | 0.00 | 64 | 1010.2 |
| 20260508093029 | 17 | 103 | 9.7 | 24.1 | 0.00 | 0.00 | 0.00 | 65 | 1010.3 |
| 20260508091528 | 17 | 59 | 8.0 | 24.1 | 0.00 | 0.00 | 0.00 | 66 | 1010.3 |
| 20260508090021 | 16 | 70 | 9.7 | 24.1 | 0.00 | 0.00 | 0.00 | 70 | 1010.3 |
| 20260508084525 | 16 | 126 | 16.1 | 22.5 | 0.00 | 0.00 | 0.00 | 69 | 1010.4 |
| 20260508083034 | 16 | 80 | 14.5 | 22.5 | 0.00 | 0.00 | 0.00 | 71 | 1010.4 |
| 20260508081529 | 16 | 84 | 8.0 | 19.3 | 0.00 | 0.00 | 0.00 | 72 | 1010.5 |
| 20260508080020 | 16 | 37 | 6.4 | 17.7 | 0.00 | 0.00 | 0.00 | 73 | 1010.6 |
| 20260508074504 | 15 | 67 | 4.8 | 16.1 | 0.00 | 0.00 | 0.00 | 74 | 1010.6 |
| 20260508073009 | 15 | 71 | 8.0 | 19.3 | 0.00 | 0.00 | 0.00 | 74 | 1010.5 |
| 20260508071512 | 15 | 77 | 6.4 | 14.5 | 0.00 | 0.00 | 0.00 | 75 | 1010.3 |
| 20260508070018 | 14 | 49 | 8.0 | 17.7 | 0.00 | 0.00 | 0.00 | 76 | 1010.2 |
| 20260508064529 | 13 | 67 | 4.8 | 12.9 | 0.00 | 0.00 | 0.00 | 77 | 1010.2 |
| 20260508063003 | 13 | 44 | 1.6 | 12.9 | 0.00 | 0.00 | 0.00 | 78 | 1010.0 |
| 20260508061510 | 13 | 61 | 4.8 | 12.9 | 0.00 | 0.00 | 0.00 | 78 | 1009.9 |
| 20260508060014 | 13 | 63 | 3.2 | 8.0 | 0.00 | 0.00 | 0.00 | 78 | 1009.9 |
| 20260508054521 | 13 | 80 | 4.8 | 11.3 | 0.00 | 0.00 | 0.00 | 78 | 1009.7 |
| 20260508053005 | 13 | 46 | 4.8 | 11.3 | 0.00 | 0.00 | 0.00 | 77 | 1009.6 |
| 20260508051508 | 13 | 46 | 3.2 | 8.0 | 0.00 | 0.00 | 0.00 | 77 | 1009.6 |
| 20260508050014 | 13 | 55 | 4.8 | 12.9 | 0.00 | 0.00 | 0.00 | 77 | 1009.6 |
| 20260508044518 | 13 | 51 | 6.4 | 11.3 | 0.00 | 0.00 | 0.00 | 76 | 1009.6 |
| 20260508043021 | 13 | 57 | 3.2 | 8.0 | 0.00 | 0.00 | 0.00 | 74 | 1009.5 |
| 20260508041510 | 13 | 34 | 3.2 | 8.0 | 0.00 | 0.00 | 0.00 | 75 | 1009.2 |
| 20260508040011 | 13 | 36 | 3.2 | 4.8 | 0.00 | 0.00 | 0.00 | 75 | 1009.1 |
| 20260508034524 | 13 | 36 | 1.6 | 3.2 | 0.00 | 0.00 | 0.00 | 76 | 1009.3 |
| 20260508033025 | 13 | 35 | 0.0 | 0.0 | 0.00 | 0.00 | 0.00 | 75 | 1009.4 |
| 20260508031525 | 13 | 35 | 0.0 | 3.2 | 0.00 | 0.00 | 0.00 | 75 | 1009.3 |
| 20260508030016 | 14 | 35 | 0.0 | 6.4 | 0.00 | 0.00 | 0.00 | 75 | 1009.4 |
| 20260508024521 | 14 | 73 | 0.0 | 3.2 | 0.00 | 0.00 | 0.00 | 74 | 1009.5 |
| 20260508023017 | 13 | 69 | 1.6 | 3.2 | 0.00 | 0.00 | 0.00 | 73 | 1009.8 |
| 20260508021531 | 13 | 69 | 1.6 | 3.2 | 0.00 | 0.00 | 0.00 | 72 | 1009.8 |
| 20260508020025 | 14 | 69 | 3.2 | 4.8 | 0.00 | 0.00 | 0.00 | 71 | 1009.9 |
| 20260508014514 | 14 | 71 | 0.0 | 6.4 | 0.00 | 0.00 | 0.00 | 71 | 1010.2 |
| 20260508013017 | 14 | 85 | 3.2 | 6.4 | 0.00 | 0.00 | 0.00 | 71 | 1010.3 |
| 20260508011530 | 14 | 226 | 0.0 | 1.6 | 0.00 | 0.00 | 0.00 | 71 | 1010.6 |
| 20260508010037 | 14 | 226 | 0.0 | 0.0 | 0.00 | 0.00 | 0.00 | 71 | 1010.3 |
| 20260508004510 | 14 | 226 | 0.0 | 0.0 | 0.00 | 0.00 | 0.00 | 71 | 1010.5 |
| 20260508003016 | 14 | 226 | 0.0 | 3.2 | 0.00 | 0.00 | 0.00 | 71 | 1010.7 |
| 20260508001522 | 14 | 226 | 0.0 | 3.2 | 0.00 | 0.00 | 0.00 | 71 | 1010.7 |
| 20260508000025 | 14 | 226 | 0.0 | 3.2 | 0.00 | 0.00 | 0.00 | 71 | 1010.7 |
| 20260507234525 | 14 | 226 | 0.0 | 1.6 | 0.00 | 0.00 | 0.00 | 70 | 1010.8 |
| 20260507233015 | 14 | 226 | 0.0 | 3.2 | 0.00 | 0.00 | 0.00 | 69 | 1010.9 |
| 20260507231519 | 14 | 226 | 0.0 | 3.2 | 0.00 | 0.00 | 0.00 | 69 | 1010.9 |
| 20260507230032 | 14 | 226 | 0.0 | 3.2 | 0.00 | 0.00 | 0.00 | 69 | 1010.7 |
| 20260507224532 | 14 | 225 | 1.6 | 4.8 | 0.00 | 0.00 | 0.00 | 69 | 1010.9 |
| 20260507223052 | 14 | 232 | 1.6 | 4.8 | 0.00 | 0.00 | 0.00 | 69 | 1011.2 |
| 20260507221517 | 14 | 236 | 3.2 | 8.0 | 0.00 | 0.00 | 0.00 | 69 | 1011.2 |
| 20260507220021 | 15 | 207 | 3.2 | 6.4 | 0.00 | 0.00 | 0.00 | 68 | 1011.4 |
| 20260507214525 | 15 | 210 | 3.2 | 8.0 | 0.00 | 0.00 | 0.00 | 68 | 1011.6 |
| 20260507213026 | 15 | 201 | 4.8 | 12.9 | 0.00 | 0.00 | 0.00 | 68 | 1011.5 |
| 20260507211528 | 15 | 227 | 4.8 | 14.5 | 0.00 | 0.00 | 0.00 | 68 | 1011.5 |
| 20260507210019 | 15 | 186 | 6.4 | 11.3 | 0.00 | 0.00 | 0.00 | 66 | 1011.2 |
| 20260507204525 | 15 | 194 | 6.4 | 12.9 | 0.00 | 0.00 | 0.00 | 67 | 1011.3 |
| 20260507203034 | 15 | 219 | 4.8 | 12.9 | 0.00 | 0.00 | 0.00 | 67 | 1011.3 |
| 20260507201528 | 15 | 200 | 4.8 | 11.3 | 0.00 | 0.00 | 0.00 | 67 | 1011.3 |
| 20260507200031 | 15 | 187 | 4.8 | 12.9 | 0.00 | 0.00 | 0.00 | 69 | 1011.1 |
| 20260507194520 | 15 | 219 | 8.0 | 16.1 | 0.00 | 0.00 | 0.00 | 69 | 1011.1 |
| 20260507193039 | 15 | 217 | 4.8 | 17.7 | 0.00 | 0.00 | 0.00 | 70 | 1011.1 |
| 20260507191526 | 15 | 183 | 8.0 | 16.1 | 0.00 | 0.00 | 0.00 | 68 | 1011.1 |
| 20260507190034 | 15 | 192 | 9.7 | 16.1 | 0.00 | 0.00 | 0.00 | 70 | 1011.0 |
| 20260507184516 | 15 | 209 | 9.7 | 16.1 | 0.00 | 0.00 | 0.00 | 67 | 1010.9 |
| 20260507183033 | 15 | 171 | 6.4 | 17.7 | 0.00 | 0.00 | 0.00 | 69 | 1010.7 |
| 20260507181523 | 15 | 186 | 8.0 | 16.1 | 0.00 | 0.00 | 0.00 | 68 | 1010.7 |
| 20260507180026 | 15 | 196 | 6.4 | 17.7 | 0.00 | 0.00 | 0.00 | 68 | 1010.7 |
| 20260507174528 | 16 | 175 | 9.7 | 20.9 | 0.00 | 0.00 | 0.00 | 67 | 1010.7 |
| 20260507173017 | 16 | 189 | 6.4 | 19.3 | 0.00 | 0.00 | 0.00 | 64 | 1010.8 |
| 20260507171516 | 16 | 203 | 9.7 | 20.9 | 0.00 | 0.00 | 0.00 | 64 | 1010.8 |
| 20260507170020 | 16 | 192 | 9.7 | 24.1 | 0.00 | 0.00 | 0.00 | 64 | 1010.7 |
| 20260507164513 | 16 | 234 | 11.3 | 22.5 | 0.00 | 0.00 | 0.00 | 66 | 1010.5 |
| 20260507163017 | 17 | 209 | 14.5 | 25.7 | 0.00 | 0.00 | 0.00 | 61 | 1010.8 |